F3965 Weather Reports


time (UTC)temp
C
wind
direction
speed
KPH
gust
KPH
rain 1hr
cm
rain 24hr
cm
rain mn
cm
humidity
%
barometer
mb
20260510180031 16 22 4.8 14.5 0.23 0.81 0.81 45 1008.9
20260510174530 16 248 1.6 12.9 0.23 1.14 0.81 50 1008.8
20260510173044 16 305 8.0 16.1 0.18 1.09 0.74 51 1009.1
20260510171535 17 200 3.2 11.3 0.00 0.94 0.58 50 1008.5
20260510170034 18 228 3.2 11.3 0.00 0.91 0.56 47 1008.6
20260510164534 17 255 1.6 6.4 0.00 0.91 0.56 46 1008.5
20260510163041 18 255 0.0 6.4 0.00 0.91 0.56 46 1008.4
20260510161536 18 0 0.0 4.8 0.00 0.91 0.56 43 1008.0
20260510160034 17 0 1.6 6.4 0.00 0.91 0.56 45 1008.1
20260510154534 17 0 0.0 0.0 0.00 0.91 0.56 46 1008.2
20260510153034 17 0 0.0 0.0 0.00 0.91 0.56 44 1008.4
20260510151533 17 0 0.0 3.2 0.00 0.91 0.56 44 1008.7
20260510150040 17 265 1.6 8.0 0.00 0.91 0.56 44 1008.8
20260510144541 16 215 4.8 9.7 0.00 0.91 0.56 44 1009.0
20260510143037 16 252 3.2 11.3 0.00 0.91 0.56 43 1009.5
20260510141534 15 266 1.6 9.7 0.00 0.91 0.56 46 1009.9
20260510140034 14 176 6.4 17.7 0.00 0.91 0.56 49 1010.1
20260510134530 13 213 8.0 16.1 0.05 0.91 0.56 51 1009.9
20260510133030 13 193 4.8 16.1 0.56 0.91 0.56 52 1010.0
20260510131534 13 229 3.2 16.1 0.56 0.91 0.56 52 1011.0
20260510130034 13 276 11.3 19.3 0.56 0.89 0.56 52 1011.4
20260510124535 13 107 19.3 74.0 0.51 0.84 0.51 51 1010.8
20260510123032 20 57 4.8 11.3 0.00 0.33 0.00 32 1008.7
20260510121530 20 93 9.7 19.3 0.00 0.33 0.00 33 1008.5
20260510120036 20 81 9.7 16.1 0.00 0.33 0.00 34 1008.7
20260510114543 20 22 8.0 16.1 0.00 0.33 0.00 31 1008.7
20260510113031 21 5 6.4 17.7 0.00 0.33 0.00 31 1008.7
20260510111534 21 304 4.8 22.5 0.00 0.33 0.00 32 1008.7
20260510110030 21 303 0.0 17.7 0.00 0.33 0.00 30 1008.9
20260510104531 21 277 8.0 25.7 0.00 0.33 0.00 31 1008.9
20260510103032 20 346 4.8 20.9 0.00 0.33 0.00 35 1009.1
20260510101534 20 340 9.7 30.6 0.00 0.33 0.00 34 1009.3
20260510100051 20 323 6.4 22.5 0.00 0.33 0.00 34 1009.2
20260510094546 20 65 8.0 24.1 0.00 0.33 0.00 35 1009.4
20260510093032 19 328 6.4 19.3 0.00 0.33 0.00 37 1009.6
20260510091532 19 336 9.7 29.0 0.00 0.33 0.00 37 1009.9
20260510090041 18 338 14.5 35.4 0.00 0.33 0.00 38 1010.0
20260510084532 17 0 6.4 25.7 0.00 0.33 0.00 41 1009.8
20260510083031 17 300 1.6 19.3 0.00 0.33 0.00 43 1010.0
20260510081543 17 28 9.7 16.1 0.00 0.33 0.00 43 1010.0
20260510080032 17 349 8.0 19.3 0.00 0.33 0.00 43 1009.8
20260510074530 17 15 4.8 19.3 0.00 0.33 0.00 44 1009.8
20260510073033 17 329 9.7 22.5 0.00 0.33 0.00 43 1009.7
20260510071539 16 286 6.4 24.1 0.00 0.33 0.00 44 1009.6
20260510070038 16 311 4.8 14.5 0.00 0.33 0.00 44 1009.3
20260510064532 16 331 4.8 19.3 0.00 0.33 0.00 44 1009.1
20260510063036 15 340 3.2 14.5 0.00 0.33 0.00 44 1009.1
20260510061530 15 281 3.2 14.5 0.00 0.33 0.00 44 1009.1
20260510060033 15 0 0.0 1.6 0.00 0.33 0.00 45 1009.0
20260510054530 14 0 0.0 6.4 0.00 0.33 0.00 46 1008.8
20260510053030 13 0 0.0 3.2 0.00 0.33 0.00 51 1008.7
20260510051532 13 0 0.0 4.8 0.00 0.33 0.00 51 1008.5
20260510050035 14 0 0.0 0.0 0.00 0.33 0.00 49 1008.3
20260510044535 14 0 0.0 0.0 0.00 0.33 0.00 51 1008.4
20260510043034 14 0 0.0 0.0 0.00 0.33 0.00 50 1008.2
20260510041530 15 0 0.0 4.8 0.00 0.33 0.00 49 1008.3
20260510040031 15 0 0.0 4.8 0.00 0.33 0.00 48 1008.2
20260510034540 14 214 0.0 6.4 0.00 0.33 0.00 50 1008.2
20260510033029 15 0 0.0 6.4 0.00 0.33 0.00 50 1008.0
20260510031531 16 0 0.0 8.0 0.00 0.33 0.00 46 1008.0
20260510030032 15 215 4.8 11.3 0.00 0.33 0.00 44 1007.9
20260510024534 15 261 0.0 9.7 0.00 0.33 0.00 46 1008.2
20260510023035 14 0 0.0 3.2 0.00 0.33 0.00 48 1008.3
20260510021533 13 0 0.0 0.0 0.00 0.33 0.00 51 1008.2
20260510020030 13 0 0.0 3.2 0.00 0.33 0.00 50 1008.2
20260510014536 14 0 1.6 6.4 0.00 0.33 0.00 49 1008.1
20260510013031 14 0 0.0 6.4 0.00 0.33 0.00 48 1008.2
20260510011541 13 85 0.0 6.4 0.00 0.33 0.00 52 1008.3
20260510010031 13 0 0.0 3.2 0.00 0.33 0.00 52 1008.3
20260510004538 13 0 0.0 4.8 0.00 0.33 0.00 52 1008.5
20260510003037 14 0 0.0 4.8 0.00 0.33 0.00 51 1008.5
20260510001532 14 0 0.0 6.4 0.00 0.33 0.00 51 1008.6
20260510000055 14 177 1.6 6.4 0.00 0.33 0.00 51 1008.7
20260509234547 14 0 1.6 4.8 0.00 0.33 0.00 51 1008.7
20260509233034 14 180 1.6 4.8 0.00 0.33 0.00 51 1008.7
20260509231534 14 0 0.0 6.4 0.00 0.33 0.00 52 1008.8
20260509230037 14 0 3.2 6.4 0.00 0.33 0.00 52 1008.6
20260509224532 14 0 0.0 4.8 0.00 0.33 0.00 51 1008.7
20260509223034 15 229 1.6 8.0 0.00 0.33 0.00 51 1008.6
20260509221531 15 228 3.2 8.0 0.00 0.33 0.00 51 1008.8
20260509220030 15 121 0.0 3.2 0.00 0.33 0.00 50 1008.7
20260509214536 15 121 0.0 3.2 0.00 0.33 0.33 50 1008.6
20260509213039 15 120 0.0 6.4 0.00 0.33 0.33 50 1008.4
20260509211537 15 97 4.8 11.3 0.00 0.33 0.33 51 1008.2
20260509210041 15 0 1.6 6.4 0.00 0.33 0.33 53 1008.2
20260509204538 14 237 0.0 6.4 0.00 0.33 0.33 54 1008.3
20260509203036 14 266 1.6 4.8 0.00 0.33 0.33 55 1008.2
20260509201539 14 0 0.0 4.8 0.00 0.33 0.33 54 1008.1
20260509200038 14 0 0.0 0.0 0.00 0.33 0.33 54 1007.8
20260509194537 14 0 0.0 0.0 0.00 0.33 0.33 54 1007.7
20260509193032 14 0 0.0 4.8 0.00 0.33 0.33 54 1007.6
20260509191533 14 0 0.0 3.2 0.00 0.33 0.33 53 1007.6
20260509190036 15 238 0.0 4.8 0.00 0.33 0.33 52 1007.6
20260509184552 15 0 0.0 0.0 0.00 0.33 0.33 52 1007.6
20260509183036 15 0 0.0 6.4 0.05 0.33 0.33 51 1007.5
20260509181539 15 0 0.0 3.2 0.28 0.33 0.33 51 1007.7